Location: Trois-Rivi�res
(46.3500°N, 72.5500°W)
Time: 20:24:36
(UTC-04:00)

Tiangong 2 - Pass Details

Date: 11 October 2017
Orbit: 388 x 392 km, 42.8° (Epoch: 17 October)

Event Time Altitude Azimuth Distance (km) Brightness Sun altitude
Exits shadow 04:38:47 14° 128° (SE) 1,218 4.0 -25.3°
Drops below altitude 10° 04:39:41 10° 113° (ESE) 1,421 4.5 -25.2°
Sets 04:42:18 0° 91° (E) 2,280 6.2 -24.7°
